TimeAKDT,TemperatureF,Dew PointF,Humidity,Sea Level PressureIn,VisibilityMPH,Wind Direction,Wind SpeedMPH,Gust SpeedMPH,PrecipitationIn,Events,Conditions,WindDirDegrees,DateUTC
12:16 AM,28.4,24.8,86,30.00,10.0,East,6.9,-,N/A,,Overcast,80,2013-03-16 08:16:00
12:36 AM,28.4,24.8,86,30.00,10.0,ENE,6.9,-,N/A,,Overcast,60,2013-03-16 08:36:00
12:56 AM,28.4,24.8,86,30.00,10.0,NE,6.9,-,N/A,,Overcast,50,2013-03-16 08:56:00
1:16 AM,28.4,24.8,86,30.01,10.0,NE,10.4,-,N/A,,Overcast,50,2013-03-16 09:16:00
1:36 AM,28.4,24.8,86,30.01,10.0,ENE,11.5,-,N/A,,Overcast,60,2013-03-16 09:36:00
1:56 AM,28.4,24.8,86,30.01,10.0,NE,8.1,-,N/A,,Overcast,50,2013-03-16 09:56:00
2:16 AM,28.4,24.8,86,30.01,10.0,NE,6.9,-,N/A,,Overcast,40,2013-03-16 10:16:00
2:36 AM,28.4,24.8,86,30.02,10.0,ENE,9.2,-,N/A,,Overcast,60,2013-03-16 10:36:00
2:56 AM,28.4,24.8,86,30.01,10.0,NE,9.2,-,N/A,,Overcast,50,2013-03-16 10:56:00
3:16 AM,28.4,24.8,86,30.01,10.0,ENE,10.4,-,N/A,,Overcast,60,2013-03-16 11:16:00
3:36 AM,28.4,24.8,86,30.01,10.0,NE,9.2,-,N/A,,Overcast,50,2013-03-16 11:36:00
3:56 AM,28.4,24.8,86,30.01,10.0,ENE,9.2,-,N/A,,Overcast,60,2013-03-16 11:56:00
4:16 AM,28.4,24.8,86,30.00,5.0,NE,10.4,-,N/A,,Overcast,50,2013-03-16 12:16:00
4:36 AM,28.4,24.8,86,30.00,10.0,NE,10.4,-,N/A,,Overcast,50,2013-03-16 12:36:00
4:56 AM,28.4,24.8,86,30.00,10.0,ENE,9.2,-,N/A,,Overcast,60,2013-03-16 12:56:00
5:16 AM,28.4,24.8,86,30.00,10.0,ENE,10.4,-,N/A,,Overcast,60,2013-03-16 13:16:00
5:36 AM,28.4,24.8,86,30.00,10.0,NE,6.9,16.1,N/A,,Overcast,50,2013-03-16 13:36:00
5:56 AM,28.4,24.8,86,30.00,10.0,NE,10.4,-,N/A,,Overcast,50,2013-03-16 13:56:00
6:16 AM,28.4,24.8,86,30.00,10.0,NE,11.5,19.6,N/A,,Overcast,50,2013-03-16 14:16:00
6:36 AM,28.4,24.8,86,30.00,10.0,ENE,11.5,18.4,N/A,,Overcast,60,2013-03-16 14:36:00
6:56 AM,28.4,24.8,86,30.00,9.0,NE,11.5,17.3,N/A,,Overcast,50,2013-03-16 14:56:00
7:16 AM,28.4,24.8,86,30.00,9.0,NE,12.7,17.3,N/A,,Mostly Cloudy,50,2013-03-16 15:16:00
7:36 AM,28.4,24.8,86,29.99,10.0,NE,12.7,18.4,N/A,,Scattered Clouds,50,2013-03-16 15:36:00
7:56 AM,28.4,24.8,86,29.99,9.0,NE,11.5,17.3,N/A,,Mostly Cloudy,50,2013-03-16 15:56:00
8:16 AM,28.4,24.8,86,30.00,9.0,NE,12.7,18.4,N/A,,Scattered Clouds,50,2013-03-16 16:16:00
8:36 AM,28.4,24.8,86,30.00,10.0,ENE,10.4,17.3,N/A,,Mostly Cloudy,60,2013-03-16 16:36:00
8:56 AM,28.4,24.8,86,30.00,10.0,NE,11.5,18.4,N/A,,Overcast,50,2013-03-16 16:56:00
9:16 AM,28.4,24.8,86,30.00,10.0,NE,11.5,17.3,N/A,,Overcast,50,2013-03-16 17:16:00
9:36 AM,28.4,24.8,86,30.00,10.0,NE,11.5,17.3,N/A,,Overcast,50,2013-03-16 17:36:00
9:56 AM,28.4,24.8,86,30.00,10.0,NE,12.7,-,N/A,,Overcast,50,2013-03-16 17:56:00
10:16 AM,28.4,24.8,86,30.00,10.0,ENE,9.2,16.1,N/A,,Overcast,60,2013-03-16 18:16:00
10:36 AM,30.2,24.8,80,30.00,8.0,NE,6.9,-,N/A,,Overcast,50,2013-03-16 18:36:00
10:56 AM,30.2,24.8,80,30.00,3.0,NE,8.1,-,N/A,,Overcast,50,2013-03-16 18:56:00
11:16 AM,30.2,24.8,80,30.00,2.5,NE,8.1,-,N/A,,Overcast,50,2013-03-16 19:16:00
11:36 AM,30.2,24.8,80,30.00,3.0,ENE,6.9,-,N/A,,Overcast,60,2013-03-16 19:36:00
11:56 AM,30.2,26.6,86,30.00,7.0,NE,8.1,-,N/A,,Overcast,50,2013-03-16 19:56:00
12:16 PM,30.2,26.6,86,30.00,9.0,NE,8.1,-,N/A,,Overcast,40,2013-03-16 20:16:00
12:36 PM,30.2,24.8,80,30.00,7.0,NE,6.9,-,N/A,,Overcast,40,2013-03-16 20:36:00
12:56 PM,30.2,26.6,86,30.00,4.0,ENE,8.1,-,N/A,,Overcast,60,2013-03-16 20:56:00
1:16 PM,32.0,24.8,75,30.01,5.0,NE,10.4,-,N/A,,Overcast,50,2013-03-16 21:16:00
1:36 PM,32.0,24.8,75,30.00,7.0,ENE,6.9,-,N/A,,Overcast,60,2013-03-16 21:36:00
1:56 PM,32.0,26.6,80,30.00,10.0,East,8.1,-,N/A,,Overcast,80,2013-03-16 21:56:00
2:16 PM,32.0,26.6,80,30.00,10.0,NE,9.2,-,N/A,,Overcast,40,2013-03-16 22:16:00
2:36 PM,32.0,26.6,80,30.00,10.0,NE,5.8,-,N/A,,Overcast,40,2013-03-16 22:36:00
2:56 PM,32.0,26.6,80,30.00,10.0,ENE,10.4,-,N/A,,Overcast,60,2013-03-16 22:56:00
3:16 PM,32.0,26.6,80,29.99,10.0,ENE,6.9,-,N/A,,Overcast,60,2013-03-16 23:16:00
3:36 PM,33.8,26.6,75,29.99,10.0,ENE,6.9,-,0.01,,Overcast,60,2013-03-16 23:36:00
3:56 PM,33.8,26.6,75,29.99,10.0,ENE,5.8,-,0.01,,Overcast,70,2013-03-16 23:56:00
4:16 PM,33.8,26.6,75,29.99,10.0,ENE,4.6,-,N/A,,Overcast,60,2013-03-17 00:16:00
4:36 PM,33.8,26.6,75,29.99,10.0,ENE,4.6,-,N/A,,Overcast,60,2013-03-17 00:36:00
4:56 PM,33.8,26.6,75,29.98,10.0,Calm,Calm,-,N/A,,Overcast,0,2013-03-17 00:56:00
5:16 PM,33.8,26.6,75,29.98,10.0,NNE,3.5,-,N/A,,Overcast,20,2013-03-17 01:16:00
5:36 PM,33.8,26.6,75,29.98,10.0,ENE,3.5,-,N/A,,Overcast,60,2013-03-17 01:36:00
5:56 PM,33.8,26.6,75,29.98,10.0,NNE,4.6,-,N/A,,Overcast,30,2013-03-17 01:56:00
6:16 PM,32.0,26.6,80,29.98,10.0,NE,3.5,-,N/A,,Overcast,50,2013-03-17 02:16:00
6:36 PM,32.0,26.6,80,29.98,10.0,ENE,5.8,-,N/A,,Overcast,60,2013-03-17 02:36:00
6:56 PM,32.0,26.6,80,29.98,10.0,NE,8.1,-,N/A,,Overcast,50,2013-03-17 02:56:00
7:16 PM,30.2,26.6,86,29.99,10.0,ENE,8.1,-,N/A,,Overcast,60,2013-03-17 03:16:00
7:36 PM,30.2,24.8,80,29.99,10.0,ENE,6.9,-,N/A,,Overcast,60,2013-03-17 03:36:00
7:56 PM,30.2,26.6,86,29.99,10.0,ENE,6.9,-,N/A,,Overcast,60,2013-03-17 03:56:00
8:16 PM,30.2,24.8,80,29.99,10.0,ENE,6.9,-,N/A,,Overcast,60,2013-03-17 04:16:00
8:36 PM,30.2,24.8,80,30.00,10.0,ENE,4.6,-,N/A,,Mostly Cloudy,60,2013-03-17 04:36:00
8:56 PM,30.2,24.8,80,30.00,10.0,ENE,5.8,-,N/A,,Mostly Cloudy,60,2013-03-17 04:56:00
9:16 PM,30.2,24.8,80,30.00,10.0,NE,6.9,-,N/A,,Overcast,50,2013-03-17 05:16:00
9:36 PM,30.2,24.8,80,30.00,10.0,ENE,5.8,-,N/A,,Mostly Cloudy,60,2013-03-17 05:36:00
9:56 PM,28.4,24.8,86,30.00,10.0,ENE,5.8,-,N/A,,Partly Cloudy,60,2013-03-17 05:56:00
10:16 PM,26.6,24.8,93,30.00,10.0,ENE,6.9,-,N/A,,Mostly Cloudy,70,2013-03-17 06:16:00
10:36 PM,28.4,24.8,86,30.00,10.0,East,6.9,-,N/A,,Overcast,80,2013-03-17 06:36:00
10:56 PM,28.4,24.8,86,30.01,5.0,East,4.6,-,N/A,,Overcast,80,2013-03-17 06:56:00
11:16 PM,28.4,24.8,86,30.01,10.0,ENE,5.8,-,N/A,,Scattered Clouds,70,2013-03-17 07:16:00
11:36 PM,26.6,24.8,93,30.01,10.0,ENE,5.8,-,N/A,,Mostly Cloudy,70,2013-03-17 07:36:00
11:56 PM,28.4,24.8,86,30.01,10.0,ENE,4.6,-,N/A,,Mostly Cloudy,70,2013-03-17 07:56:00